owner,sensor,date,latitude,longitude,sea_surface_height_above_sea_level,qcFlag 
COMPS,ioos:station:USF.COMPS:SHP:1,2017-02-01T19:24:00Z,30.0600,-84.2910,-9.998,1111122 
COMPS,ioos:station:USF.COMPS:SHP:1,2017-02-01T19:30:00Z,30.0600,-84.2910,-9.972,1111122 
COMPS,ioos:station:USF.COMPS:SHP:1,2017-02-01T19:36:00Z,30.0600,-84.2910,-9.946,1111122 
COMPS,ioos:station:USF.COMPS:SHP:1,2017-02-01T19:42:00Z,30.0600,-84.2910,-9.92,1111122 
COMPS,ioos:station:USF.COMPS:SHP:1,2017-02-01T19:48:00Z,30.0600,-84.2910,-9.892,1111122 
COMPS,ioos:station:USF.COMPS:SHP:1,2017-02-01T19:54:00Z,30.0600,-84.2910,-9.865,1111122 
COMPS,ioos:station:USF.COMPS:SHP:1,2017-02-01T20:00:00Z,30.0600,-84.2910,-9.839,1111122 
COMPS,ioos:station:USF.COMPS:SHP:1,2017-02-01T20:06:00Z,30.0600,-84.2910,-9.815,1111122 
COMPS,ioos:station:USF.COMPS:SHP:1,2017-02-01T20:12:00Z,30.0600,-84.2910,-9.791,1111122 
COMPS,ioos:station:USF.COMPS:SHP:1,2017-02-01T20:18:00Z,30.0600,-84.2910,-9.767,1111122 
COMPS,ioos:station:USF.COMPS:SHP:1,2017-02-01T20:24:00Z,30.0600,-84.2910,-9.743,1111122 
COMPS,ioos:station:USF.COMPS:SHP:1,2017-02-01T20:30:00Z,30.0600,-84.2910,-9.716,1111122 
COMPS,ioos:station:USF.COMPS:SHP:1,2017-02-01T20:36:00Z,30.0600,-84.2910,-9.692,1111122 
COMPS,ioos:station:USF.COMPS:SHP:1,2017-02-01T20:42:00Z,30.0600,-84.2910,-9.675,1111122 
COMPS,ioos:station:USF.COMPS:SHP:1,2017-02-01T20:48:00Z,30.0600,-84.2910,-9.656,1111122 
COMPS,ioos:station:USF.COMPS:SHP:1,2017-02-01T20:54:00Z,30.0600,-84.2910,-9.631,1111122 
COMPS,ioos:station:USF.COMPS:SHP:1,2017-02-02T13:00:00Z,30.0600,-84.2910,-9.911,1111122 
COMPS,ioos:station:USF.COMPS:SHP:1,2017-02-02T13:06:00Z,30.0600,-84.2910,-9.929,1111122 
COMPS,ioos:station:USF.COMPS:SHP:1,2017-02-02T13:12:00Z,30.0600,-84.2910,-9.95,1111122 
COMPS,ioos:station:USF.COMPS:SHP:1,2017-02-02T13:18:00Z,30.0600,-84.2910,-9.973,1111122 
COMPS,ioos:station:USF.COMPS:SHP:1,2017-02-02T13:24:00Z,30.0600,-84.2910,-9.994,1111122 
COMPS,ioos:station:USF.COMPS:SHP:1,2017-02-02T20:06:00Z,30.0600,-84.2910,-9.993,1111122 
COMPS,ioos:station:USF.COMPS:SHP:1,2017-02-02T20:12:00Z,30.0600,-84.2910,-9.974,1111122 
COMPS,ioos:station:USF.COMPS:SHP:1,2017-02-02T20:18:00Z,30.0600,-84.2910,-9.946,1111122 
COMPS,ioos:station:USF.COMPS:SHP:1,2017-02-02T20:24:00Z,30.0600,-84.2910,-9.923,1111122 
COMPS,ioos:station:USF.COMPS:SHP:1,2017-02-02T20:30:00Z,30.0600,-84.2910,-9.907,1111122 
COMPS,ioos:station:USF.COMPS:SHP:1,2017-02-02T20:36:00Z,30.0600,-84.2910,-9.886,1111122 
COMPS,ioos:station:USF.COMPS:SHP:1,2017-02-02T20:42:00Z,30.0600,-84.2910,-9.858,1111122 
COMPS,ioos:station:USF.COMPS:SHP:1,2017-02-02T20:48:00Z,30.0600,-84.2910,-9.83,1111122 
COMPS,ioos:station:USF.COMPS:SHP:1,2017-02-02T20:54:00Z,30.0600,-84.2910,-9.809,1111122 
COMPS,ioos:station:USF.COMPS:SHP:1,2017-02-03T14:00:00Z,30.0600,-84.2910,-9.973,1111122 
COMPS,ioos:station:USF.COMPS:SHP:1,2017-02-03T14:06:00Z,30.0600,-84.2910,-9.992,1111122 
COMPS,ioos:station:USF.COMPS:SHP:1,2017-02-05T15:00:00Z,30.0600,-84.2910,-9.827,1111122 
COMPS,ioos:station:USF.COMPS:SHP:1,2017-02-05T15:06:00Z,30.0600,-84.2910,-9.83,1111122 
COMPS,ioos:station:USF.COMPS:SHP:1,2017-02-05T15:12:00Z,30.0600,-84.2910,-9.828,1111122 
COMPS,ioos:station:USF.COMPS:SHP:1,2017-02-05T15:18:00Z,30.0600,-84.2910,-9.831,1111122 
COMPS,ioos:station:USF.COMPS:SHP:1,2017-02-05T15:24:00Z,30.0600,-84.2910,-9.835,1111122 
COMPS,ioos:station:USF.COMPS:SHP:1,2017-02-05T15:30:00Z,30.0600,-84.2910,-9.844,1111122 
COMPS,ioos:station:USF.COMPS:SHP:1,2017-02-05T15:36:00Z,30.0600,-84.2910,-9.861,1111122 
COMPS,ioos:station:USF.COMPS:SHP:1,2017-02-05T15:42:00Z,30.0600,-84.2910,-9.871,1111122 
COMPS,ioos:station:USF.COMPS:SHP:1,2017-02-05T15:48:00Z,30.0600,-84.2910,-9.87,1111122 
COMPS,ioos:station:USF.COMPS:SHP:1,2017-02-05T15:54:00Z,30.0600,-84.2910,-9.865,1111122 
COMPS,ioos:station:USF.COMPS:SHP:1,2017-02-05T16:00:00Z,30.0600,-84.2910,-9.871,1111122 
COMPS,ioos:station:USF.COMPS:SHP:1,2017-02-05T16:06:00Z,30.0600,-84.2910,-9.881,1111122 
COMPS,ioos:station:USF.COMPS:SHP:1,2017-02-05T16:12:00Z,30.0600,-84.2910,-9.894,1111122 
COMPS,ioos:station:USF.COMPS:SHP:1,2017-02-05T16:18:00Z,30.0600,-84.2910,-9.908,1111122 
COMPS,ioos:station:USF.COMPS:SHP:1,2017-02-05T16:24:00Z,30.0600,-84.2910,-9.91,1111122 
COMPS,ioos:station:USF.COMPS:SHP:1,2017-02-05T16:30:00Z,30.0600,-84.2910,-9.907,1111122 
COMPS,ioos:station:USF.COMPS:SHP:1,2017-02-05T16:36:00Z,30.0600,-84.2910,-9.92,1111122 
COMPS,ioos:station:USF.COMPS:SHP:1,2017-02-05T16:42:00Z,30.0600,-84.2910,-9.935,1111122 
COMPS,ioos:station:USF.COMPS:SHP:1,2017-02-05T16:48:00Z,30.0600,-84.2910,-9.942,1111122 
COMPS,ioos:station:USF.COMPS:SHP:1,2017-02-05T16:54:00Z,30.0600,-84.2910,-9.952,1111122 
COMPS,ioos:station:USF.COMPS:SHP:1,2017-02-05T17:00:00Z,30.0600,-84.2910,-9.96,1111122 
COMPS,ioos:station:USF.COMPS:SHP:1,2017-02-05T17:06:00Z,30.0600,-84.2910,-9.976,1111122 
COMPS,ioos:station:USF.COMPS:SHP:1,2017-02-05T17:12:00Z,30.0600,-84.2910,-9.991,1111122 
COMPS,ioos:station:USF.COMPS:SHP:1,2017-02-05T17:18:00Z,30.0600,-84.2910,-9.996,1111122 
COMPS,ioos:station:USF.COMPS:SHP:1,2017-02-06T14:36:00Z,30.0600,-84.2910,-9.991,1111122 
COMPS,ioos:station:USF.COMPS:SHP:1,2017-02-06T14:42:00Z,30.0600,-84.2910,-9.977,1111122 
COMPS,ioos:station:USF.COMPS:SHP:1,2017-02-06T14:48:00Z,30.0600,-84.2910,-9.959,1111122 
COMPS,ioos:station:USF.COMPS:SHP:1,2017-02-06T14:54:00Z,30.0600,-84.2910,-9.945,1111122 
COMPS,ioos:station:USF.COMPS:SHP:1,2017-02-06T15:00:00Z,30.0600,-84.2910,-9.936,1111122 
COMPS,ioos:station:USF.COMPS:SHP:1,2017-02-06T15:06:00Z,30.0600,-84.2910,-9.924,1111122 
COMPS,ioos:station:USF.COMPS:SHP:1,2017-02-06T15:12:00Z,30.0600,-84.2910,-9.91,1111122 
COMPS,ioos:station:USF.COMPS:SHP:1,2017-02-06T15:18:00Z,30.0600,-84.2910,-9.894,1111122 
COMPS,ioos:station:USF.COMPS:SHP:1,2017-02-06T15:24:00Z,30.0600,-84.2910,-9.877,1111122 
COMPS,ioos:station:USF.COMPS:SHP:1,2017-02-06T15:30:00Z,30.0600,-84.2910,-9.864,1111122 
COMPS,ioos:station:USF.COMPS:SHP:1,2017-02-06T15:36:00Z,30.0600,-84.2910,-9.861,1111122 
COMPS,ioos:station:USF.COMPS:SHP:1,2017-02-06T15:42:00Z,30.0600,-84.2910,-9.853,1111122 
COMPS,ioos:station:USF.COMPS:SHP:1,2017-02-06T15:48:00Z,30.0600,-84.2910,-9.842,1111122 
COMPS,ioos:station:USF.COMPS:SHP:1,2017-02-06T15:54:00Z,30.0600,-84.2910,-9.837,1111122 
COMPS,ioos:station:USF.COMPS:SHP:1,2017-02-06T16:00:00Z,30.0600,-84.2910,-9.837,1111122 
COMPS,ioos:station:USF.COMPS:SHP:1,2017-02-06T16:06:00Z,30.0600,-84.2910,-9.826,1111122 
COMPS,ioos:station:USF.COMPS:SHP:1,2017-02-06T16:12:00Z,30.0600,-84.2910,-9.812,1111122 
COMPS,ioos:station:USF.COMPS:SHP:1,2017-02-06T16:18:00Z,30.0600,-84.2910,-9.809,1111122 
COMPS,ioos:station:USF.COMPS:SHP:1,2017-02-06T16:24:00Z,30.0600,-84.2910,-9.807,1111122 
COMPS,ioos:station:USF.COMPS:SHP:1,2017-02-06T16:30:00Z,30.0600,-84.2910,-9.798,1111122 
COMPS,ioos:station:USF.COMPS:SHP:1,2017-02-06T16:36:00Z,30.0600,-84.2910,-9.799,1111122 
COMPS,ioos:station:USF.COMPS:SHP:1,2017-02-06T16:42:00Z,30.0600,-84.2910,-9.801,1111122 
COMPS,ioos:station:USF.COMPS:SHP:1,2017-02-06T16:48:00Z,30.0600,-84.2910,-9.805,1111122 
COMPS,ioos:station:USF.COMPS:SHP:1,2017-02-06T16:54:00Z,30.0600,-84.2910,-9.804,1111122 
COMPS,ioos:station:USF.COMPS:SHP:1,2017-02-06T17:00:00Z,30.0600,-84.2910,-9.795,1111122 
COMPS,ioos:station:USF.COMPS:SHP:1,2017-02-06T17:06:00Z,30.0600,-84.2910,-9.785,1111122 
COMPS,ioos:station:USF.COMPS:SHP:1,2017-02-06T17:12:00Z,30.0600,-84.2910,-9.791,1111122 
COMPS,ioos:station:USF.COMPS:SHP:1,2017-02-06T17:18:00Z,30.0600,-84.2910,-9.802,1111122 
COMPS,ioos:station:USF.COMPS:SHP:1,2017-02-06T17:24:00Z,30.0600,-84.2910,-9.807,1111122 
COMPS,ioos:station:USF.COMPS:SHP:1,2017-02-06T17:30:00Z,30.0600,-84.2910,-9.817,1111122 
COMPS,ioos:station:USF.COMPS:SHP:1,2017-02-06T17:36:00Z,30.0600,-84.2910,-9.832,1111122 
COMPS,ioos:station:USF.COMPS:SHP:1,2017-02-06T17:42:00Z,30.0600,-84.2910,-9.833,1111122 
COMPS,ioos:station:USF.COMPS:SHP:1,2017-02-06T17:48:00Z,30.0600,-84.2910,-9.833,1111122 
COMPS,ioos:station:USF.COMPS:SHP:1,2017-02-06T17:54:00Z,30.0600,-84.2910,-9.838,1111122 
COMPS,ioos:station:USF.COMPS:SHP:1,2017-02-06T18:00:00Z,30.0600,-84.2910,-9.848,1111122 
COMPS,ioos:station:USF.COMPS:SHP:1,2017-02-06T18:06:00Z,30.0600,-84.2910,-9.857,1111122 
COMPS,ioos:station:USF.COMPS:SHP:1,2017-02-06T18:12:00Z,30.0600,-84.2910,-9.867,1111122 
COMPS,ioos:station:USF.COMPS:SHP:1,2017-02-06T18:18:00Z,30.0600,-84.2910,-9.879,1111122 
COMPS,ioos:station:USF.COMPS:SHP:1,2017-02-06T18:24:00Z,30.0600,-84.2910,-9.88,1111122 
COMPS,ioos:station:USF.COMPS:SHP:1,2017-02-06T18:30:00Z,30.0600,-84.2910,-9.889,1111122 
COMPS,ioos:station:USF.COMPS:SHP:1,2017-02-06T18:36:00Z,30.0600,-84.2910,-9.903,1111122 
COMPS,ioos:station:USF.COMPS:SHP:1,2017-02-06T18:42:00Z,30.0600,-84.2910,-9.92,1111122 
COMPS,ioos:station:USF.COMPS:SHP:1,2017-02-06T18:48:00Z,30.0600,-84.2910,-9.93,1111122 
COMPS,ioos:station:USF.COMPS:SHP:1,2017-02-06T18:54:00Z,30.0600,-84.2910,-9.934,1111122 
COMPS,ioos:station:USF.COMPS:SHP:1,2017-02-06T19:00:00Z,30.0600,-84.2910,-9.933,1111122 
COMPS,ioos:station:USF.COMPS:SHP:1,2017-02-06T19:06:00Z,30.0600,-84.2910,-9.936,1111122 
COMPS,ioos:station:USF.COMPS:SHP:1,2017-02-06T19:12:00Z,30.0600,-84.2910,-9.949,1111122 
COMPS,ioos:station:USF.COMPS:SHP:1,2017-02-06T19:18:00Z,30.0600,-84.2910,-9.969,1111122 
COMPS,ioos:station:USF.COMPS:SHP:1,2017-02-06T19:24:00Z,30.0600,-84.2910,-9.984,1111122 
COMPS,ioos:station:USF.COMPS:SHP:1,2017-02-06T19:30:00Z,30.0600,-84.2910,-9.997,1111122 
COMPS,ioos:station:USF.COMPS:SHP:1,2017-02-07T14:30:00Z,30.0600,-84.2910,-9.994,1111122 
COMPS,ioos:station:USF.COMPS:SHP:1,2017-02-07T14:36:00Z,30.0600,-84.2910,-9.973,1111122 
COMPS,ioos:station:USF.COMPS:SHP:1,2017-02-07T14:42:00Z,30.0600,-84.2910,-9.952,1111122 
COMPS,ioos:station:USF.COMPS:SHP:1,2017-02-07T14:48:00Z,30.0600,-84.2910,-9.93,1111122 
COMPS,ioos:station:USF.COMPS:SHP:1,2017-02-07T14:54:00Z,30.0600,-84.2910,-9.9,1111122 
COMPS,ioos:station:USF.COMPS:SHP:1,2017-02-07T15:00:00Z,30.0600,-84.2910,-9.868,1111122 
COMPS,ioos:station:USF.COMPS:SHP:1,2017-02-07T15:06:00Z,30.0600,-84.2910,-9.843,1111122 
COMPS,ioos:station:USF.COMPS:SHP:1,2017-02-07T15:12:00Z,30.0600,-84.2910,-9.822,1111122 
COMPS,ioos:station:USF.COMPS:SHP:1,2017-02-07T15:18:00Z,30.0600,-84.2910,-9.801,1111122 
COMPS,ioos:station:USF.COMPS:SHP:1,2017-02-07T15:24:00Z,30.0600,-84.2910,-9.784,1111122 
COMPS,ioos:station:USF.COMPS:SHP:1,2017-02-07T15:30:00Z,30.0600,-84.2910,-9.763,1111122 
COMPS,ioos:station:USF.COMPS:SHP:1,2017-02-07T15:36:00Z,30.0600,-84.2910,-9.745,1111122 
COMPS,ioos:station:USF.COMPS:SHP:1,2017-02-07T15:42:00Z,30.0600,-84.2910,-9.727,1111122 
COMPS,ioos:station:USF.COMPS:SHP:1,2017-02-07T15:48:00Z,30.0600,-84.2910,-9.713,1111122 
COMPS,ioos:station:USF.COMPS:SHP:1,2017-02-07T15:54:00Z,30.0600,-84.2910,-9.698,1111122 
COMPS,ioos:station:USF.COMPS:SHP:1,2017-02-07T16:00:00Z,30.0600,-84.2910,-9.672,1111122 
COMPS,ioos:station:USF.COMPS:SHP:1,2017-02-07T16:06:00Z,30.0600,-84.2910,-9.662,1111122 
COMPS,ioos:station:USF.COMPS:SHP:1,2017-02-07T16:12:00Z,30.0600,-84.2910,-9.653,1111122 
COMPS,ioos:station:USF.COMPS:SHP:1,2017-02-07T16:18:00Z,30.0600,-84.2910,-9.628,1111122 
COMPS,ioos:station:USF.COMPS:SHP:1,2017-02-07T16:24:00Z,30.0600,-84.2910,-9.62,1111122 
COMPS,ioos:station:USF.COMPS:SHP:1,2017-02-07T16:30:00Z,30.0600,-84.2910,-9.616,1111122 
COMPS,ioos:station:USF.COMPS:SHP:1,2017-02-07T16:36:00Z,30.0600,-84.2910,-9.601,1111122 
COMPS,ioos:station:USF.COMPS:SHP:1,2017-02-07T16:42:00Z,30.0600,-84.2910,-9.583,1111122 
COMPS,ioos:station:USF.COMPS:SHP:1,2017-02-07T16:48:00Z,30.0600,-84.2910,-9.57,1111122 
COMPS,ioos:station:USF.COMPS:SHP:1,2017-02-07T16:54:00Z,30.0600,-84.2910,-9.563,1111122 
COMPS,ioos:station:USF.COMPS:SHP:1,2017-02-07T17:00:00Z,30.0600,-84.2910,-9.564,1111122 
COMPS,ioos:station:USF.COMPS:SHP:1,2017-02-07T17:06:00Z,30.0600,-84.2910,-9.557,1111122 
COMPS,ioos:station:USF.COMPS:SHP:1,2017-02-07T17:12:00Z,30.0600,-84.2910,-9.556,1111122 
COMPS,ioos:station:USF.COMPS:SHP:1,2017-02-07T17:18:00Z,30.0600,-84.2910,-9.554,1111122 
COMPS,ioos:station:USF.COMPS:SHP:1,2017-02-07T17:24:00Z,30.0600,-84.2910,-9.538,1111122 
COMPS,ioos:station:USF.COMPS:SHP:1,2017-02-07T17:30:00Z,30.0600,-84.2910,-9.522,1111122 
COMPS,ioos:station:USF.COMPS:SHP:1,2017-02-07T17:36:00Z,30.0600,-84.2910,-9.535,1111122 
COMPS,ioos:station:USF.COMPS:SHP:1,2017-02-07T17:42:00Z,30.0600,-84.2910,-9.544,1111122 
COMPS,ioos:station:USF.COMPS:SHP:1,2017-02-07T17:48:00Z,30.0600,-84.2910,-9.531,1111122 
COMPS,ioos:station:USF.COMPS:SHP:1,2017-02-07T17:54:00Z,30.0600,-84.2910,-9.534,1111122 
COMPS,ioos:station:USF.COMPS:SHP:1,2017-02-07T19:42:00Z,30.0600,-84.2910,-9.715,1111122 
COMPS,ioos:station:USF.COMPS:SHP:1,2017-02-07T19:48:00Z,30.0600,-84.2910,-9.732,1111122 
COMPS,ioos:station:USF.COMPS:SHP:1,2017-02-07T19:54:00Z,30.0600,-84.2910,-9.76,1111122 
COMPS,ioos:station:USF.COMPS:SHP:1,2017-02-08T15:00:00Z,30.0600,-84.2910,-9.875,1111122 
COMPS,ioos:station:USF.COMPS:SHP:1,2017-02-08T15:06:00Z,30.0600,-84.2910,-9.832,1111122 
COMPS,ioos:station:USF.COMPS:SHP:1,2017-02-08T15:12:00Z,30.0600,-84.2910,-9.807,1111122 
COMPS,ioos:station:USF.COMPS:SHP:1,2017-02-08T15:18:00Z,30.0600,-84.2910,-9.788,1111122 
COMPS,ioos:station:USF.COMPS:SHP:1,2017-02-08T15:24:00Z,30.0600,-84.2910,-9.758,1111122 
COMPS,ioos:station:USF.COMPS:SHP:1,2017-02-08T15:30:00Z,30.0600,-84.2910,-9.714,1111122 
COMPS,ioos:station:USF.COMPS:SHP:1,2017-02-08T15:36:00Z,30.0600,-84.2910,-9.676,1111122 
COMPS,ioos:station:USF.COMPS:SHP:1,2017-02-08T15:42:00Z,30.0600,-84.2910,-9.649,1111122 
COMPS,ioos:station:USF.COMPS:SHP:1,2017-02-08T15:48:00Z,30.0600,-84.2910,-9.63,1111122 
COMPS,ioos:station:USF.COMPS:SHP:1,2017-02-08T15:54:00Z,30.0600,-84.2910,-9.611,1111122 
COMPS,ioos:station:USF.COMPS:SHP:1,2017-02-08T16:00:00Z,30.0600,-84.2910,-9.58,1111122 
COMPS,ioos:station:USF.COMPS:SHP:1,2017-02-08T16:06:00Z,30.0600,-84.2910,-9.548,1111122 
COMPS,ioos:station:USF.COMPS:SHP:1,2017-02-08T16:12:00Z,30.0600,-84.2910,-9.527,1111122 
COMPS,ioos:station:USF.COMPS:SHP:1,2017-02-08T16:18:00Z,30.0600,-84.2910,-9.508,1111122 
COMPS,ioos:station:USF.COMPS:SHP:1,2017-02-08T16:24:00Z,30.0600,-84.2910,-9.493,1111122 
COMPS,ioos:station:USF.COMPS:SHP:1,2017-02-08T16:30:00Z,30.0600,-84.2910,-9.476,1111122 
COMPS,ioos:station:USF.COMPS:SHP:1,2017-02-08T16:36:00Z,30.0600,-84.2910,-9.459,1111122 
COMPS,ioos:station:USF.COMPS:SHP:1,2017-02-08T16:42:00Z,30.0600,-84.2910,-9.448,1111122 
COMPS,ioos:station:USF.COMPS:SHP:1,2017-02-08T16:48:00Z,30.0600,-84.2910,-9.433,1111122 
COMPS,ioos:station:USF.COMPS:SHP:1,2017-02-08T16:54:00Z,30.0600,-84.2910,-9.417,1111122 
COMPS,ioos:station:USF.COMPS:SHP:1,2017-02-08T17:00:00Z,30.0600,-84.2910,-9.4,1111122 
COMPS,ioos:station:USF.COMPS:SHP:1,2017-02-08T17:06:00Z,30.0600,-84.2910,-9.396,1111122 
COMPS,ioos:station:USF.COMPS:SHP:1,2017-02-08T17:12:00Z,30.0600,-84.2910,-9.386,1111122 
COMPS,ioos:station:USF.COMPS:SHP:1,2017-02-08T17:18:00Z,30.0600,-84.2910,-9.375,1111122 
COMPS,ioos:station:USF.COMPS:SHP:1,2017-02-08T17:24:00Z,30.0600,-84.2910,-9.367,1111122 
COMPS,ioos:station:USF.COMPS:SHP:1,2017-02-08T17:30:00Z,30.0600,-84.2910,-9.363,1111122 
COMPS,ioos:station:USF.COMPS:SHP:1,2017-02-08T17:36:00Z,30.0600,-84.2910,-9.355,1111122 
COMPS,ioos:station:USF.COMPS:SHP:1,2017-02-08T17:42:00Z,30.0600,-84.2910,-9.348,1111122 
COMPS,ioos:station:USF.COMPS:SHP:1,2017-02-08T17:48:00Z,30.0600,-84.2910,-9.346,1111122 
COMPS,ioos:station:USF.COMPS:SHP:1,2017-02-08T17:54:00Z,30.0600,-84.2910,-9.349,1111122 
COMPS,ioos:station:USF.COMPS:SHP:1,2017-02-08T18:00:00Z,30.0600,-84.2910,-9.355,1111122 
COMPS,ioos:station:USF.COMPS:SHP:1,2017-02-08T18:06:00Z,30.0600,-84.2910,-9.353,1111122 
COMPS,ioos:station:USF.COMPS:SHP:1,2017-02-08T18:12:00Z,30.0600,-84.2910,-9.34,1111122 
COMPS,ioos:station:USF.COMPS:SHP:1,2017-02-08T18:18:00Z,30.0600,-84.2910,-9.342,1111122 
COMPS,ioos:station:USF.COMPS:SHP:1,2017-02-08T18:24:00Z,30.0600,-84.2910,-9.359,1111122 
COMPS,ioos:station:USF.COMPS:SHP:1,2017-02-08T18:30:00Z,30.0600,-84.2910,-9.361,1111122 
COMPS,ioos:station:USF.COMPS:SHP:1,2017-02-08T18:36:00Z,30.0600,-84.2910,-9.362,1111122 
COMPS,ioos:station:USF.COMPS:SHP:1,2017-02-08T18:42:00Z,30.0600,-84.2910,-9.369,1111122 
COMPS,ioos:station:USF.COMPS:SHP:1,2017-02-08T18:48:00Z,30.0600,-84.2910,-9.38,1111122 
COMPS,ioos:station:USF.COMPS:SHP:1,2017-02-08T18:54:00Z,30.0600,-84.2910,-9.388,1111122 
COMPS,ioos:station:USF.COMPS:SHP:1,2017-02-08T19:48:00Z,30.0600,-84.2910,-9.55,1111122 
COMPS,ioos:station:USF.COMPS:SHP:1,2017-02-08T19:54:00Z,30.0600,-84.2910,-9.581,1111122 
COMPS,ioos:station:USF.COMPS:SHP:1,2017-02-09T17:54:00Z,30.0600,-84.2910,-9.995,1111122 
COMPS,ioos:station:USF.COMPS:SHP:1,2017-02-09T18:00:00Z,30.0600,-84.2910,-9.97,1111122 
COMPS,ioos:station:USF.COMPS:SHP:1,2017-02-09T18:06:00Z,30.0600,-84.2910,-9.953,1111122 
COMPS,ioos:station:USF.COMPS:SHP:1,2017-02-09T18:12:00Z,30.0600,-84.2910,-9.955,1111122 
COMPS,ioos:station:USF.COMPS:SHP:1,2017-02-09T18:18:00Z,30.0600,-84.2910,-9.95,1111122 
COMPS,ioos:station:USF.COMPS:SHP:1,2017-02-09T18:24:00Z,30.0600,-84.2910,-9.935,1111122 
COMPS,ioos:station:USF.COMPS:SHP:1,2017-02-09T18:30:00Z,30.0600,-84.2910,-9.92,1111122 
COMPS,ioos:station:USF.COMPS:SHP:1,2017-02-09T18:36:00Z,30.0600,-84.2910,-9.906,1111122 
COMPS,ioos:station:USF.COMPS:SHP:1,2017-02-09T18:42:00Z,30.0600,-84.2910,-9.901,1111122 
COMPS,ioos:station:USF.COMPS:SHP:1,2017-02-09T18:48:00Z,30.0600,-84.2910,-9.892,1111122 
COMPS,ioos:station:USF.COMPS:SHP:1,2017-02-09T18:54:00Z,30.0600,-84.2910,-9.881,1111122 
COMPS,ioos:station:USF.COMPS:SHP:1,2017-02-09T19:00:00Z,30.0600,-84.2910,-9.865,1111122 
COMPS,ioos:station:USF.COMPS:SHP:1,2017-02-09T19:06:00Z,30.0600,-84.2910,-9.856,1111122 
COMPS,ioos:station:USF.COMPS:SHP:1,2017-02-09T19:12:00Z,30.0600,-84.2910,-9.863,1111122 
COMPS,ioos:station:USF.COMPS:SHP:1,2017-02-09T19:18:00Z,30.0600,-84.2910,-9.867,1111122 
COMPS,ioos:station:USF.COMPS:SHP:1,2017-02-09T19:24:00Z,30.0600,-84.2910,-9.868,1111122 
COMPS,ioos:station:USF.COMPS:SHP:1,2017-02-09T19:30:00Z,30.0600,-84.2910,-9.869,1111122 
COMPS,ioos:station:USF.COMPS:SHP:1,2017-02-09T19:36:00Z,30.0600,-84.2910,-9.885,1111122 
COMPS,ioos:station:USF.COMPS:SHP:1,2017-02-09T19:42:00Z,30.0600,-84.2910,-9.897,1111122 
COMPS,ioos:station:USF.COMPS:SHP:1,2017-02-09T19:48:00Z,30.0600,-84.2910,-9.897,1111122 
COMPS,ioos:station:USF.COMPS:SHP:1,2017-02-09T19:54:00Z,30.0600,-84.2910,-9.901,1111122 
COMPS,ioos:station:USF.COMPS:SHP:1,2017-02-09T20:00:00Z,30.0600,-84.2910,-9.911,1111122 
COMPS,ioos:station:USF.COMPS:SHP:1,2017-02-09T20:06:00Z,30.0600,-84.2910,-9.921,1111122 
COMPS,ioos:station:USF.COMPS:SHP:1,2017-02-09T20:12:00Z,30.0600,-84.2910,-9.932,1111122 
COMPS,ioos:station:USF.COMPS:SHP:1,2017-02-09T20:18:00Z,30.0600,-84.2910,-9.941,1111122 
COMPS,ioos:station:USF.COMPS:SHP:1,2017-02-09T20:24:00Z,30.0600,-84.2910,-9.947,1111122 
COMPS,ioos:station:USF.COMPS:SHP:1,2017-02-09T20:30:00Z,30.0600,-84.2910,-9.965,1111122 
COMPS,ioos:station:USF.COMPS:SHP:1,2017-02-09T20:36:00Z,30.0600,-84.2910,-9.991,1111122 
COMPS,ioos:station:USF.COMPS:SHP:1,2017-02-10T18:30:00Z,30.0600,-84.2910,-9.987,1111122 
COMPS,ioos:station:USF.COMPS:SHP:1,2017-02-10T18:36:00Z,30.0600,-84.2910,-9.972,1111122 
COMPS,ioos:station:USF.COMPS:SHP:1,2017-02-10T18:42:00Z,30.0600,-84.2910,-9.961,1111122 
COMPS,ioos:station:USF.COMPS:SHP:1,2017-02-10T18:48:00Z,30.0600,-84.2910,-9.951,1111122 
COMPS,ioos:station:USF.COMPS:SHP:1,2017-02-10T18:54:00Z,30.0600,-84.2910,-9.938,1111122 
COMPS,ioos:station:USF.COMPS:SHP:1,2017-02-10T19:00:00Z,30.0600,-84.2910,-9.928,1111122 
COMPS,ioos:station:USF.COMPS:SHP:1,2017-02-10T19:06:00Z,30.0600,-84.2910,-9.924,1111122 
COMPS,ioos:station:USF.COMPS:SHP:1,2017-02-10T19:12:00Z,30.0600,-84.2910,-9.919,1111122 
COMPS,ioos:station:USF.COMPS:SHP:1,2017-02-10T19:18:00Z,30.0600,-84.2910,-9.916,1111122 
COMPS,ioos:station:USF.COMPS:SHP:1,2017-02-10T19:24:00Z,30.0600,-84.2910,-9.913,1111122 
COMPS,ioos:station:USF.COMPS:SHP:1,2017-02-10T19:30:00Z,30.0600,-84.2910,-9.911,1111122 
COMPS,ioos:station:USF.COMPS:SHP:1,2017-02-10T19:36:00Z,30.0600,-84.2910,-9.91,1111122 
COMPS,ioos:station:USF.COMPS:SHP:1,2017-02-10T19:42:00Z,30.0600,-84.2910,-9.918,1111122 
COMPS,ioos:station:USF.COMPS:SHP:1,2017-02-10T19:48:00Z,30.0600,-84.2910,-9.925,1111122 
COMPS,ioos:station:USF.COMPS:SHP:1,2017-02-10T19:54:00Z,30.0600,-84.2910,-9.916,1111122 
COMPS,ioos:station:USF.COMPS:SHP:1,2017-02-10T20:00:00Z,30.0600,-84.2910,-9.908,1111122 
COMPS,ioos:station:USF.COMPS:SHP:1,2017-02-10T20:06:00Z,30.0600,-84.2910,-9.907,1111122 
COMPS,ioos:station:USF.COMPS:SHP:1,2017-02-10T20:12:00Z,30.0600,-84.2910,-9.913,1111122 
COMPS,ioos:station:USF.COMPS:SHP:1,2017-02-10T20:18:00Z,30.0600,-84.2910,-9.921,1111122 
COMPS,ioos:station:USF.COMPS:SHP:1,2017-02-10T20:24:00Z,30.0600,-84.2910,-9.926,1111122 
COMPS,ioos:station:USF.COMPS:SHP:1,2017-02-10T20:30:00Z,30.0600,-84.2910,-9.935,1111122 
COMPS,ioos:station:USF.COMPS:SHP:1,2017-02-10T20:36:00Z,30.0600,-84.2910,-9.937,1111122 
COMPS,ioos:station:USF.COMPS:SHP:1,2017-02-10T20:42:00Z,30.0600,-84.2910,-9.939,1111122 
COMPS,ioos:station:USF.COMPS:SHP:1,2017-02-10T20:48:00Z,30.0600,-84.2910,-9.949,1111122 
COMPS,ioos:station:USF.COMPS:SHP:1,2017-02-10T20:54:00Z,30.0600,-84.2910,-9.966,1111122 
COMPS,ioos:station:USF.COMPS:SHP:1,2017-02-11T18:00:00Z,30.0600,-84.2910,-9.874,1111122 
COMPS,ioos:station:USF.COMPS:SHP:1,2017-02-11T18:06:00Z,30.0600,-84.2910,-9.847,1111122 
COMPS,ioos:station:USF.COMPS:SHP:1,2017-02-11T18:12:00Z,30.0600,-84.2910,-9.82,1111122 
COMPS,ioos:station:USF.COMPS:SHP:1,2017-02-11T18:18:00Z,30.0600,-84.2910,-9.801,1111122 
COMPS,ioos:station:USF.COMPS:SHP:1,2017-02-11T18:24:00Z,30.0600,-84.2910,-9.784,1111122 
COMPS,ioos:station:USF.COMPS:SHP:1,2017-02-11T18:30:00Z,30.0600,-84.2910,-9.764,1111122 
COMPS,ioos:station:USF.COMPS:SHP:1,2017-02-11T18:36:00Z,30.0600,-84.2910,-9.736,1111122 
COMPS,ioos:station:USF.COMPS:SHP:1,2017-02-11T18:42:00Z,30.0600,-84.2910,-9.716,1111122 
COMPS,ioos:station:USF.COMPS:SHP:1,2017-02-11T18:48:00Z,30.0600,-84.2910,-9.705,1111122 
COMPS,ioos:station:USF.COMPS:SHP:1,2017-02-11T18:54:00Z,30.0600,-84.2910,-9.689,1111122 
COMPS,ioos:station:USF.COMPS:SHP:1,2017-02-11T19:00:00Z,30.0600,-84.2910,-9.67,1111122 
COMPS,ioos:station:USF.COMPS:SHP:1,2017-02-11T19:06:00Z,30.0600,-84.2910,-9.653,1111122 
COMPS,ioos:station:USF.COMPS:SHP:1,2017-02-11T19:12:00Z,30.0600,-84.2910,-9.639,1111122 
COMPS,ioos:station:USF.COMPS:SHP:1,2017-02-11T19:18:00Z,30.0600,-84.2910,-9.625,1111122 
COMPS,ioos:station:USF.COMPS:SHP:1,2017-02-11T19:24:00Z,30.0600,-84.2910,-9.615,1111122 
COMPS,ioos:station:USF.COMPS:SHP:1,2017-02-11T19:30:00Z,30.0600,-84.2910,-9.607,1111122 
COMPS,ioos:station:USF.COMPS:SHP:1,2017-02-11T19:36:00Z,30.0600,-84.2910,-9.594,1111122 
COMPS,ioos:station:USF.COMPS:SHP:1,2017-02-11T19:42:00Z,30.0600,-84.2910,-9.58,1111122 
COMPS,ioos:station:USF.COMPS:SHP:1,2017-02-11T19:48:00Z,30.0600,-84.2910,-9.574,1111122 
COMPS,ioos:station:USF.COMPS:SHP:1,2017-02-11T19:54:00Z,30.0600,-84.2910,-9.571,1111122 
COMPS,ioos:station:USF.COMPS:SHP:1,2017-02-11T20:00:00Z,30.0600,-84.2910,-9.569,1111122 
COMPS,ioos:station:USF.COMPS:SHP:1,2017-02-11T20:06:00Z,30.0600,-84.2910,-9.562,1111122 
COMPS,ioos:station:USF.COMPS:SHP:1,2017-02-11T20:12:00Z,30.0600,-84.2910,-9.559,1111122 
COMPS,ioos:station:USF.COMPS:SHP:1,2017-02-11T20:18:00Z,30.0600,-84.2910,-9.56,1111122 
COMPS,ioos:station:USF.COMPS:SHP:1,2017-02-11T20:24:00Z,30.0600,-84.2910,-9.557,1111122 
COMPS,ioos:station:USF.COMPS:SHP:1,2017-02-11T20:30:00Z,30.0600,-84.2910,-9.554,1111122 
COMPS,ioos:station:USF.COMPS:SHP:1,2017-02-11T20:36:00Z,30.0600,-84.2910,-9.553,1111122 
COMPS,ioos:station:USF.COMPS:SHP:1,2017-02-11T20:42:00Z,30.0600,-84.2910,-9.563,1111122 
COMPS,ioos:station:USF.COMPS:SHP:1,2017-02-11T20:48:00Z,30.0600,-84.2910,-9.568,1111122 
COMPS,ioos:station:USF.COMPS:SHP:1,2017-02-11T20:54:00Z,30.0600,-84.2910,-9.57,1111122 